CDT,Max TemperatureF,Mean TemperatureF,Min TemperatureF,Max Dew PointF,MeanDew PointF,Min DewpointF,Max Humidity, Mean Humidity, Min Humidity, Max Sea Level PressureIn, Mean Sea Level PressureIn, Min Sea Level PressureIn, Max VisibilityMiles, Mean VisibilityMiles, Min VisibilityMiles, Max Wind SpeedMPH, Mean Wind SpeedMPH, Max Gust SpeedMPH,PrecipitationIn, CloudCover, Events, WindDirDegrees
2012-10-1,75,63,52,57,53,46,100,79,35,29.86,29.83,29.79,10,6,1,15,1,,0.00,1,,28
2012-10-2,74,62,50,54,49,43,99,67,43,29.93,29.88,29.84,10,9,1,10,5,,0.00,0,,317
2012-10-3,76,62,49,55,49,46,100,67,35,29.99,29.95,29.91,10,10,10,14,5,17,0.00,0,,193
2012-10-4,67,56,46,56,47,42,100,79,53,30.26,30.21,30.12,10,9,5,15,9,23,0.33,7,Rain-Thunderstorm,343
2012-10-5,50,43,36,47,44,36,100,94,61,30.30,30.25,30.21,10,9,2,16,6,,0.74,7,Rain-Thunderstorm,28
2012-10-6,46,40,35,37,32,28,99,71,50,30.35,30.30,30.28,10,10,10,10,6,,0.00,4,,315
2012-10-7,55,43,32,34,31,27,99,67,35,30.34,30.25,30.18,10,7,3,8,5,,0.00,1,,216
2012-10-8,60,46,32,38,33,30,96,75,38,30.18,30.13,30.02,10,6,2,18,9,25,0.00,0,,201
2012-10-9,68,54,41,57,47,39,100,78,53,30.12,29.97,29.90,10,9,2,20,10,28,0.04,4,Rain,246
2012-10-10,61,47,34,37,33,29,91,60,31,30.31,30.22,30.13,10,10,9,9,4,,0.00,0,,230
2012-10-11,64,52,40,55,47,33,90,74,63,30.25,30.14,30.08,10,10,10,12,6,,0.00,6,,163
2012-10-12,61,54,49,57,47,37,100,74,58,30.33,30.23,30.08,10,10,10,15,9,23,0.01,6,Rain,104
2012-10-13,69,63,57,68,64,57,100,100,94,30.08,29.89,29.69,10,8,2,20,10,26,1.34,7,Rain-Thunderstorm,170
2012-10-14,69,60,48,64,56,43,100,82,42,29.99,29.74,29.56,10,10,9,23,14,30,0.05,4,Rain,245
2012-10-15,73,58,43,53,47,43,100,70,38,30.03,29.95,29.86,10,7,0,7,3,,0.00,0,,161
2012-10-16,79,67,55,52,50,46,90,59,33,29.85,29.67,29.55,10,10,10,26,13,36,0.00,0,,200
2012-10-17,65,58,51,64,53,32,100,81,45,29.64,29.51,29.45,10,9,2,18,11,24,0.13,5,Rain-Thunderstorm,233
2012-10-18,59,50,43,39,32,28,63,48,32,29.67,29.65,29.60,10,10,10,28,15,38,0.00,5,,273
2012-10-19,51,48,46,43,41,39,87,77,66,29.85,29.73,29.62,10,10,8,22,15,30,0.00,8,,288
2012-10-20,69,54,39,45,43,39,99,69,33,29.90,29.83,29.76,10,10,10,8,4,,0.00,1,,136
2012-10-21,75,62,50,67,59,44,85,76,66,29.86,29.82,29.79,10,10,10,14,8,,0.00,4,,168
2012-10-22,79,73,67,70,68,66,100,87,69,29.87,29.82,29.77,10,10,10,21,11,29,0.00,4,,189
2012-10-23,76,70,64,69,67,64,100,91,74,29.88,29.83,29.77,10,10,4,23,13,30,0.13,7,Rain-Thunderstorm,180
2012-10-24,82,73,65,68,65,62,94,76,62,29.86,29.81,29.74,10,10,10,25,16,33,0.00,1,,188
2012-10-25,69,56,40,66,50,32,97,84,72,30.28,29.90,29.69,10,10,4,23,17,38,0.01,7,Rain,291
2012-10-26,45,40,32,31,29,27,84,65,55,30.45,30.39,30.29,10,10,10,17,13,24,0.00,5,,2
2012-10-27,45,36,26,30,27,25,95,74,50,30.43,30.35,30.28,10,10,10,10,7,20,0.00,2,,18
2012-10-28,50,38,26,30,27,25,100,75,41,30.44,30.32,30.27,10,9,6,9,1,,0.00,1,,19
2012-10-29,54,42,31,34,30,26,89,68,40,30.43,30.28,30.15,10,10,8,9,2,,0.00,4,,127
2012-10-30,53,42,31,32,28,25,90,58,35,30.15,30.07,30.01,10,10,10,8,3,,0.00,3,,55
2012-10-31,59,46,35,34,30,28,82,56,34,30.07,30.03,30.01,10,10,9,9,4,,0.00,2,,326